Regional Weather Roundup
Issued by NWS

Home | Current Version | Previous Version | Text Only | Print | Product List | Glossary On
Versions: 1 2 3 4 5 6 7 8 9 10 11 12 13 14 15 16 17 18 19 20 21 22 23 24 25 26 27 28 29 30 31 32 33 34 35 36 37 38 39 40 41 42 43 44 45 46 47 48 49 50
000
ASUS46 KSTO 250515
RWRCA

NORTHERN AND CENTRAL CA REGIONAL WEATHER ROUNDUP
NATIONAL WEATHER SERVICE SACRAMENTO CA
1000 PM PDT FRI MAR 24 2017

NOTE: FAIR INDICATES FEW OR NO CLOUDS BELOW 12,000 FEET WITH NO
SIGNIFICANT WEATHER AND/OR OBSTRUCTIONS TO VISIBILITY.

CAZ001-003-250600-
NORTHWEST AREA

CITY           SKY/WX    TMP DP  RH WIND       PRES   REMARKS
CRESCENT CITY  CLOUDY    52  50  93 S12       30.17R
UKIAH          MOCLDY    51  48  89 N3        30.17R
$$

CAZ006-505>513-250600-
BAY AREA

CITY           SKY/WX    TMP DP  RH WIND       PRES   REMARKS
SANTA ROSA     CLOUDY    53  50  89 CALM      30.16R
SAN RAFAEL     N/A       54  MM  MM MISG
NAPA           CLOUDY    55  51  86 SE3       30.18R
CONCORD        CLOUDY    56  54  93 CALM      30.18R
OAKLAND CITY   N/A      MM  MM  MM MISG
OAKLAND        CLOUDY    55  54  96 CALM      30.19R
SAN FRAN CITY  N/A       54  MM  85 MISG
SAN FRAN ARPT  CLOUDY    54  50  86 NW3       30.18R
LIVERMORE      CLOUDY    53  50  89 CALM      30.17R
HAYWARD        CLOUDY    56  50  80 NW3       30.18R
REDWOOD CITY   N/A       54  MM  98 MISG
MOFFETT ARPT   CLOUDY    55  54  96 SE3       30.19R
SAN JOSE ARPT  LGT RAIN  54  51  90 E7        30.18R FOG
$$
CAZ034-037-514>518-250600-
CENTRAL COAST

CITY           SKY/WX    TMP DP  RH WIND       PRES   REMARKS
WATSONVILLE    LGT RAIN  53  53 100 CALM      30.18S FOG
SALINAS        LGT RAIN  56  53  90 CALM      30.17R
MONTEREY       LGT RAIN  55  53  93 CALM      30.17S FOG
SAN LUIS OBISP CLOUDY    57  53  86 W3        30.21R
SANTA MARIA    LGT RAIN  56  54  93 CALM      30.19F
$$
CAZ015-016-250600-
NORTHERN SACRAMENTO VALLEY

CITY           SKY/WX    TMP DP  RH WIND       PRES   REMARKS
REDDING        CLOUDY    50  48  93 S8        30.16R
RED BLUFF      LGT RAIN  51  49  92 S9        30.19R
OROVILLE       CLOUDY    53  48  83 E7        30.20R
$$
CAZ016>018-250600-
SOUTHERN SACRAMENTO VALLEY

CITY           SKY/WX    TMP DP  RH WIND       PRES   REMARKS
AUBURN         CLOUDY    50  45  81 SE6       30.19R
BEALE AFB      CLOUDY    52  48  87 NE5       30.18R
LINCOLN        CLOUDY    52  45  76 SE3       30.18S
MARYSVILLE     CLOUDY    52  49  89 CALM      30.20R
SAC INTL ARPT  CLOUDY    54  48  80 S8        30.18S
MATHER AIRPORT CLOUDY    52  48  87 E3        30.19
DOWNTOWN SAC   N/A       54  MM  MM MISG
SAC EXEC ARPT  CLOUDY    53  49  86 CALM      30.18S
VACAVILLE      CLOUDY    53  53 100 S3        30.19S FOG
TRAVIS AFB     CLOUDY    54  52  94 SE8       30.17R
$$
CAZ019>021-250600-
SAN JOAQUIN VALLEY

CITY           SKY/WX    TMP DP  RH WIND       PRES   REMARKS
STOCKTON       LGT RAIN  54  52  93 S3        30.18S FOG
MODESTO        CLOUDY    56  48  74 S3        30.18S
MERCED         CLOUDY    52  48  86 S3        30.18S
LEMOORE        LGT RAIN  52  49  89 NW7       30.20S
FRESNO         LGT RAIN  54  51  90 NE8       30.18F
HANFORD        CLOUDY    54  53  97 CALM      30.19R
PORTERVILLE    LGT RAIN  56  53  90 NW3       30.18R
BAKERSFIELD    CLOUDY    58  41  53 NW7       30.17S
$$
CAZ011-012-071-250600-
NORTHERN MOUNTAINS

CITY           SKY/WX    TMP DP  RH WIND       PRES   REMARKS
YREKA          PTCLDY    41  35  79 SW3       30.13R
MOUNT SHASTA   MOCLDY    36  34  92 CALM      30.13R FOG
ALTURAS        MOCLDY    36  35  96 S3        30.12R
$$
CAZ011-012-071-250600-
SIERRA NEVADA MTNS

CITY           SKY/WX    TMP DP  RH WIND       PRES   REMARKS
BLUE CANYON    LGT RAIN  35  35 100 S9        30.17S VSB 1/2 WCI  28
TRUCKEE        CLOUDY    36  32  87 CALM      30.14R
TAHOE VLY ARPT LGT RAIN  35  33  92 SW5       30.13R WCI  31
MAMMOTH LAKES  CLOUDY    36  32  87 S6        30.17S WCI  31
$$



USA.gov is the U.S. government's official web portal to all federal, state and local government web resources and services.